Starlink 32658

operational
NORAD ID: 62999 Int'l Des: 2025-031 Owner: SPXS Country: US Constellation: starlink
LEOCIRCULAR

关于 Starlink 32658

正在加载描述...

实时位置

正在加载3D地球...

即将过境

高度历史

Altitude vs Time

uPlot chart will show altitude changes over time

两行轨道根数

1 62999U 25031U 25257.45213121 .00015876 00000-0 58475-3 0 9995
2 62999 43.0072 58.4859 0004553 288.4399 71.5958 15.27598534 34148
Epoch: Sep 14, 2025 • Age: 35 hours

当前状态

高度 481.6 km
速度 7.63 km/s
星下点 14.49°N, 109.23°E
发射日期 Feb 11, 2025
运行时间 0.5 years
类型 internet

技术详情

分类 Payload
质量 730.00 kg
干质量 700.00 kg
总质量 730.00 kg
长度 0.30 m
直径 4.10 m
跨度 29.00 m
形状 Box + pan
制造商 SPXS
平台类型 Starlink V2M
阶段状态 In Orbit
所有者/国家 SPXS/US

大型星座

Loading constellations...